TimeAKST,TemperatureF,Dew PointF,Humidity,Sea Level PressureIn,VisibilityMPH,Wind Direction,Wind SpeedMPH,Gust SpeedMPH,PrecipitationIn,Events,Conditions,WindDirDegrees,DateUTC
12:16 AM,15.8,12.2,86,29.84,10.0,SSW,4.6,-,N/A,,Clear,200,2012-12-22 09:16:00
1:56 AM,12.2,10.4,92,29.83,-9999.0,SW,3.5,-,N/A,,Unknown,230,2012-12-22 10:56:00
2:16 AM,12.2,12.2,100,29.82,10.0,WSW,4.6,-,N/A,,Partly Cloudy,240,2012-12-22 11:16:00
2:36 AM,15.8,15.8,100,29.82,10.0,SSW,4.6,-,N/A,,Scattered Clouds,200,2012-12-22 11:36:00
2:56 AM,15.8,10.4,79,29.82,10.0,SW,3.5,-,N/A,,Mostly Cloudy,230,2012-12-22 11:56:00
3:36 AM,14.0,8.6,79,29.81,10.0,SW,3.5,-,N/A,,Clear,220,2012-12-22 12:36:00
3:56 AM,14.0,6.8,73,29.80,10.0,WSW,3.5,-,N/A,,Clear,240,2012-12-22 12:56:00
4:16 AM,14.0,12.2,93,29.79,10.0,SW,3.5,-,N/A,,Mostly Cloudy,220,2012-12-22 13:16:00
4:36 AM,15.8,12.2,86,29.79,10.0,WSW,3.5,-,N/A,,Overcast,250,2012-12-22 13:36:00
4:56 AM,15.8,12.2,86,29.78,10.0,WSW,3.5,-,N/A,,Overcast,240,2012-12-22 13:56:00
5:16 AM,15.8,12.2,86,29.78,10.0,WSW,3.5,-,N/A,,Overcast,250,2012-12-22 14:16:00
5:36 AM,17.6,14.0,86,29.78,10.0,Calm,Calm,-,N/A,,Overcast,0,2012-12-22 14:36:00
5:56 AM,17.6,12.2,79,29.77,10.0,Calm,Calm,-,N/A,,Overcast,0,2012-12-22 14:56:00
6:16 AM,15.8,12.2,86,29.77,10.0,WSW,4.6,-,N/A,,Overcast,250,2012-12-22 15:16:00
6:36 AM,15.8,12.2,86,29.76,10.0,WSW,3.5,-,N/A,,Overcast,240,2012-12-22 15:36:00
6:56 AM,17.6,12.2,79,29.76,10.0,SW,3.5,-,N/A,,Mostly Cloudy,220,2012-12-22 15:56:00
7:16 AM,17.6,12.2,79,29.76,10.0,WSW,3.5,-,N/A,,Mostly Cloudy,250,2012-12-22 16:16:00
7:36 AM,17.6,12.2,79,29.76,10.0,Calm,Calm,-,N/A,,Mostly Cloudy,0,2012-12-22 16:36:00
7:56 AM,15.8,12.2,86,29.76,10.0,WSW,3.5,-,N/A,,Mostly Cloudy,240,2012-12-22 16:56:00
8:16 AM,14.0,12.2,93,29.76,10.0,WSW,3.5,-,N/A,,Mostly Cloudy,250,2012-12-22 17:16:00
8:36 AM,15.8,14.0,93,29.76,10.0,WSW,5.8,-,N/A,,Mostly Cloudy,250,2012-12-22 17:36:00
8:56 AM,17.6,14.0,86,29.76,10.0,WSW,3.5,-,N/A,,Overcast,250,2012-12-22 17:56:00
9:16 AM,17.6,15.8,93,29.76,10.0,West,3.5,-,N/A,,Overcast,260,2012-12-22 18:16:00
9:36 AM,19.4,15.8,86,29.76,10.0,SW,3.5,-,N/A,,Overcast,230,2012-12-22 18:36:00
9:56 AM,19.4,15.8,86,29.75,10.0,Calm,Calm,-,N/A,,Mostly Cloudy,0,2012-12-22 18:56:00
10:16 AM,19.4,15.8,86,29.76,10.0,Calm,Calm,-,N/A,,Mostly Cloudy,0,2012-12-22 19:16:00
10:36 AM,19.4,15.8,86,29.76,10.0,Calm,Calm,-,N/A,,Mostly Cloudy,0,2012-12-22 19:36:00
10:56 AM,21.2,17.6,86,29.75,10.0,Calm,Calm,-,N/A,,Overcast,0,2012-12-22 19:56:00
11:16 AM,21.2,17.6,86,29.75,10.0,Calm,Calm,-,N/A,,Overcast,0,2012-12-22 20:16:00
11:36 AM,23.0,12.2,63,29.74,10.0,Calm,Calm,-,N/A,,Overcast,0,2012-12-22 20:36:00
11:56 AM,21.2,15.8,80,29.74,10.0,Calm,Calm,-,N/A,,Overcast,0,2012-12-22 20:56:00
12:16 PM,21.2,17.6,86,29.73,10.0,Calm,Calm,-,N/A,,Overcast,0,2012-12-22 21:16:00
12:36 PM,21.2,17.6,86,29.74,10.0,Calm,Calm,-,N/A,,Overcast,0,2012-12-22 21:36:00
12:56 PM,21.2,17.6,86,29.73,10.0,Calm,Calm,-,N/A,,Overcast,0,2012-12-22 21:56:00
1:49 PM,21.2,17.6,86,29.73,10.0,Calm,Calm,-,N/A,,Overcast,0,2012-12-22 22:49:00
2:47 PM,21.2,17.6,86,29.71,10.0,Calm,Calm,-,N/A,,Mostly Cloudy,0,2012-12-22 23:47:00
4:47 PM,19.4,17.6,93,29.69,10.0,Calm,Calm,-,N/A,,Overcast,0,2012-12-23 01:47:00
5:16 PM,-9999,-9999,N/A,29.68,10.0,Calm,Calm,-,N/A,,Overcast,0,2012-12-23 02:16:00
5:36 PM,21.2,14.0,74,29.69,10.0,Calm,Calm,-,N/A,,Overcast,0,2012-12-23 02:36:00
5:56 PM,19.4,12.2,74,29.69,10.0,Calm,Calm,-,N/A,,Scattered Clouds,0,2012-12-23 02:56:00
6:16 PM,19.4,15.8,86,29.70,10.0,Calm,Calm,-,N/A,,Scattered Clouds,0,2012-12-23 03:16:00
6:36 PM,19.4,14.0,80,29.70,10.0,Calm,Calm,-,N/A,,Scattered Clouds,0,2012-12-23 03:36:00
6:56 PM,19.4,14.0,80,29.70,10.0,Calm,Calm,-,N/A,,Partly Cloudy,0,2012-12-23 03:56:00
7:16 PM,19.4,15.8,86,29.70,10.0,SSW,3.5,-,N/A,,Partly Cloudy,200,2012-12-23 04:16:00
7:36 PM,17.6,12.2,79,29.70,10.0,South,3.5,-,N/A,,Partly Cloudy,170,2012-12-23 04:36:00
7:56 PM,17.6,17.6,100,29.70,10.0,SW,3.5,-,N/A,,Partly Cloudy,230,2012-12-23 04:56:00
8:16 PM,17.6,14.0,86,29.70,10.0,Calm,Calm,-,N/A,,Partly Cloudy,0,2012-12-23 05:16:00
8:36 PM,17.6,14.0,86,29.70,10.0,Calm,Calm,-,N/A,,Partly Cloudy,0,2012-12-23 05:36:00
8:56 PM,15.8,12.2,86,29.70,10.0,Calm,Calm,-,N/A,,Partly Cloudy,0,2012-12-23 05:56:00
9:16 PM,17.6,14.0,86,29.70,10.0,Calm,Calm,-,N/A,,Partly Cloudy,0,2012-12-23 06:16:00
9:36 PM,17.6,14.0,86,29.70,10.0,Calm,Calm,-,N/A,,Partly Cloudy,0,2012-12-23 06:36:00
9:56 PM,15.8,8.6,73,29.70,-9999.0,Calm,Calm,-,N/A,,Clear,0,2012-12-23 06:56:00
10:16 PM,17.6,14.0,86,29.71,10.0,WSW,3.5,-,N/A,,Clear,240,2012-12-23 07:16:00
10:36 PM,15.8,14.0,93,29.71,10.0,Calm,Calm,-,N/A,,Clear,0,2012-12-23 07:36:00
10:56 PM,15.8,12.2,86,29.72,10.0,Calm,Calm,-,N/A,,Clear,0,2012-12-23 07:56:00
11:16 PM,15.8,12.2,86,29.72,10.0,Calm,Calm,-,N/A,,Clear,0,2012-12-23 08:16:00
11:36 PM,15.8,14.0,93,29.72,10.0,WSW,3.5,-,N/A,,Clear,250,2012-12-23 08:36:00
11:56 PM,15.8,12.2,86,29.73,10.0,WSW,4.6,-,N/A,,Clear,250,2012-12-23 08:56:00